Location: Mahannah Oil Field
(37.4664°N, 96.6003°W)
Time: 15:32:14
(UTC+00:00)

Vanguard 2 Rocket - Pass Details

Date: 28 January 2021
Orbit: 554 x 3325 km, 32.9° (Epoch: 06 March)

Event Time Altitude Azimuth Distance (km) Brightness Sun altitude
Rises 01:38:18 0° 278° (W) 5,067 12.1 -22.4°
Reaches altitude 10° 01:42:43 10° 269° (W) 3,576 11.0 -23.3°
Maximum altitude 01:49:48 30° 212° (SSW) 1,692 8.5 -24.7°
Enters shadow 01:53:04 18° 163° (SSE) 1,933 8.4 -25.4°
Drops below altitude 10° 01:54:27 10° 151° (SSE) 2,291 - -25.6°
Sets 01:56:40 0° 139° (SE) 3,019 - -26.1°
